Year,Month,Day,Hour,Minute,Value (Times are PST for temperature in C)
2010,04,02,00,00,7.10
2010,04,02,00,01,7.10
2010,04,02,00,02,7.10
2010,04,02,00,03,7.10
2010,04,02,00,04,7.10
2010,04,02,00,05,7.10
2010,04,02,00,06,7.10
2010,04,02,00,07,7.10
2010,04,02,00,08,7.10
2010,04,02,00,09,7.10
2010,04,02,00,10,7.10
2010,04,02,00,11,7.10
2010,04,02,00,12,7.10
2010,04,02,00,13,7.10
2010,04,02,00,14,7.20
2010,04,02,00,15,7.20
2010,04,02,00,16,7.20
2010,04,02,00,17,7.20
2010,04,02,00,18,7.20
2010,04,02,00,19,7.20
2010,04,02,00,20,7.20
2010,04,02,00,21,7.20
2010,04,02,00,22,7.20
2010,04,02,00,23,7.20
2010,04,02,00,24,7.30
2010,04,02,00,25,7.30
2010,04,02,00,26,7.30
2010,04,02,00,27,7.30
2010,04,02,00,28,7.30
2010,04,02,00,29,7.30
2010,04,02,00,30,7.30
2010,04,02,00,31,7.30
2010,04,02,00,32,7.30
2010,04,02,00,33,7.30
2010,04,02,00,34,7.30
2010,04,02,00,35,7.30
2010,04,02,00,36,7.30
2010,04,02,00,37,7.30
2010,04,02,00,38,7.30
2010,04,02,00,39,7.30
2010,04,02,00,40,7.30
2010,04,02,00,41,7.30
2010,04,02,00,42,7.30
2010,04,02,00,43,7.30
2010,04,02,00,44,7.30
2010,04,02,00,45,7.30
2010,04,02,00,46,7.30
2010,04,02,00,47,7.30
2010,04,02,00,48,7.30
2010,04,02,00,49,7.30
2010,04,02,00,50,7.30
2010,04,02,00,51,7.30
2010,04,02,00,52,7.30
2010,04,02,00,53,7.30
2010,04,02,00,54,7.30
2010,04,02,00,55,7.30
2010,04,02,00,56,7.30
2010,04,02,00,57,7.30
2010,04,02,00,58,7.30
2010,04,02,00,59,7.30
2010,04,02,01,00,7.30
2010,04,02,01,01,7.30
2010,04,02,01,02,7.30
2010,04,02,01,03,7.30
2010,04,02,01,04,7.30
2010,04,02,01,05,7.30
2010,04,02,01,06,7.30
2010,04,02,01,07,7.30
2010,04,02,01,08,7.30
2010,04,02,01,09,7.30
2010,04,02,01,10,7.30
2010,04,02,01,11,7.30
2010,04,02,01,12,7.30
2010,04,02,01,13,7.30
2010,04,02,01,14,7.30
2010,04,02,01,15,7.30
2010,04,02,01,16,7.30
2010,04,02,01,17,7.30
2010,04,02,01,18,7.30
2010,04,02,01,19,7.30
2010,04,02,01,20,7.30
2010,04,02,01,21,7.30
2010,04,02,01,22,7.30
2010,04,02,01,23,7.30
2010,04,02,01,24,7.30
2010,04,02,01,25,7.30
2010,04,02,01,26,7.20
2010,04,02,01,27,7.20
2010,04,02,01,28,7.20
2010,04,02,01,29,7.20
2010,04,02,01,30,7.20
2010,04,02,01,31,7.10
2010,04,02,01,32,7.10
2010,04,02,01,33,7.10
2010,04,02,01,34,7.10
2010,04,02,01,35,7.00
2010,04,02,01,36,7.00
2010,04,02,01,37,7.00
2010,04,02,01,38,7.00
2010,04,02,01,39,7.00
2010,04,02,01,40,7.00
2010,04,02,01,41,7.00
2010,04,02,01,42,7.00
2010,04,02,01,43,7.00
2010,04,02,01,44,6.90
2010,04,02,01,45,6.90
2010,04,02,01,46,6.90
2010,04,02,01,47,6.90
2010,04,02,01,48,6.90
2010,04,02,01,49,6.90
2010,04,02,01,50,6.90
2010,04,02,01,51,6.90
2010,04,02,01,52,6.90
2010,04,02,01,53,6.90
2010,04,02,01,54,6.90
2010,04,02,01,55,6.90
2010,04,02,01,56,6.90
2010,04,02,01,57,6.90
2010,04,02,01,58,6.90
2010,04,02,01,59,6.90
2010,04,02,02,00,6.90
2010,04,02,02,01,6.90
2010,04,02,02,02,6.90
2010,04,02,02,03,6.90
2010,04,02,02,04,6.90
2010,04,02,02,05,6.90
2010,04,02,02,06,6.90
2010,04,02,02,07,6.90
2010,04,02,02,08,6.90
2010,04,02,02,09,6.90
2010,04,02,02,10,6.90
2010,04,02,02,11,6.90
2010,04,02,02,12,6.90
2010,04,02,02,13,6.90
2010,04,02,02,14,6.90
2010,04,02,02,15,6.90
2010,04,02,02,16,6.90
2010,04,02,02,17,6.90
2010,04,02,02,18,6.90
2010,04,02,02,19,6.90
2010,04,02,02,20,6.90
2010,04,02,02,21,6.90
2010,04,02,02,22,6.90
2010,04,02,02,23,6.90
2010,04,02,02,24,6.90
2010,04,02,02,25,6.90
2010,04,02,02,26,6.90
2010,04,02,02,27,7.00
2010,04,02,02,28,7.00
2010,04,02,02,29,7.00
2010,04,02,02,30,7.00
2010,04,02,02,31,7.00
2010,04,02,02,32,7.00
2010,04,02,02,33,7.00
2010,04,02,02,34,7.10
2010,04,02,02,35,7.10
2010,04,02,02,36,7.10
2010,04,02,02,37,7.10
2010,04,02,02,38,7.10
2010,04,02,02,39,7.10
2010,04,02,02,40,7.10
2010,04,02,02,41,7.10
2010,04,02,02,42,7.10
2010,04,02,02,43,7.10
2010,04,02,02,44,7.10
2010,04,02,02,45,7.00
2010,04,02,02,46,7.00
2010,04,02,02,47,7.10
2010,04,02,02,48,7.00
2010,04,02,02,49,7.00
2010,04,02,02,50,7.00
2010,04,02,02,51,7.00
2010,04,02,02,52,7.10
2010,04,02,02,53,7.10
2010,04,02,02,54,7.10
2010,04,02,02,55,7.10
2010,04,02,02,56,7.10
2010,04,02,02,57,7.10
2010,04,02,02,58,7.10
2010,04,02,02,59,7.10
2010,04,02,03,00,7.10
2010,04,02,03,01,7.10
2010,04,02,03,02,7.10
2010,04,02,03,03,7.10
2010,04,02,03,04,7.10
2010,04,02,03,05,7.10
2010,04,02,03,06,7.20
2010,04,02,03,07,7.20
2010,04,02,03,08,7.20
2010,04,02,03,09,7.20
2010,04,02,03,10,7.20
2010,04,02,03,11,7.20
2010,04,02,03,12,7.30
2010,04,02,03,13,7.30
2010,04,02,03,14,7.30
2010,04,02,03,15,7.30
2010,04,02,03,16,7.30
2010,04,02,03,17,7.30
2010,04,02,03,18,7.30
2010,04,02,03,19,7.30
2010,04,02,03,20,7.30
2010,04,02,03,21,7.30
2010,04,02,03,22,7.30
2010,04,02,03,23,7.30
2010,04,02,03,24,7.30
2010,04,02,03,25,7.30
2010,04,02,03,26,7.30
2010,04,02,03,27,7.30
2010,04,02,03,28,7.30
2010,04,02,03,29,7.30
2010,04,02,03,30,7.30
2010,04,02,03,31,7.30
2010,04,02,03,32,7.30
2010,04,02,03,33,7.30
2010,04,02,03,34,7.30
2010,04,02,03,35,7.30
2010,04,02,03,36,7.30
2010,04,02,03,37,7.30
2010,04,02,03,38,7.30
2010,04,02,03,39,7.30
2010,04,02,03,40,7.30
2010,04,02,03,41,7.30
2010,04,02,03,42,7.30
2010,04,02,03,43,7.30
2010,04,02,03,44,7.30
2010,04,02,03,45,7.30
2010,04,02,03,46,7.30
2010,04,02,03,47,7.30
2010,04,02,03,48,7.30
2010,04,02,03,49,7.30
2010,04,02,03,50,7.30
2010,04,02,03,51,7.30
2010,04,02,03,52,7.30
2010,04,02,03,53,7.30
2010,04,02,03,54,7.30
2010,04,02,03,55,7.30
2010,04,02,03,56,7.30
2010,04,02,03,57,7.30
2010,04,02,03,58,7.40
2010,04,02,03,59,7.40
2010,04,02,04,00,7.30
2010,04,02,04,01,7.30
2010,04,02,04,02,7.30
2010,04,02,04,03,7.30
2010,04,02,04,04,7.30
2010,04,02,04,05,7.30
2010,04,02,04,06,7.30
2010,04,02,04,07,7.30
2010,04,02,04,08,7.30
2010,04,02,04,09,7.30
2010,04,02,04,10,7.20
2010,04,02,04,11,7.20
2010,04,02,04,12,7.20
2010,04,02,04,13,7.10
2010,04,02,04,14,7.10
2010,04,02,04,15,7.10
2010,04,02,04,16,7.00
2010,04,02,04,17,7.00
2010,04,02,04,18,7.00
2010,04,02,04,19,7.00
2010,04,02,04,20,7.00
2010,04,02,04,21,7.00
2010,04,02,04,22,7.00
2010,04,02,04,23,6.90
2010,04,02,04,24,6.90
2010,04,02,04,25,6.90
2010,04,02,04,26,6.90
2010,04,02,04,27,6.80
2010,04,02,04,28,6.80
2010,04,02,04,29,6.80
2010,04,02,04,30,6.80
2010,04,02,04,31,6.80
2010,04,02,04,32,6.80
2010,04,02,04,33,6.80
2010,04,02,04,34,6.80
2010,04,02,04,35,6.80
2010,04,02,04,36,6.80
2010,04,02,04,37,6.90
2010,04,02,04,38,6.90
2010,04,02,04,39,7.00
2010,04,02,04,40,7.10
2010,04,02,04,41,7.20
2010,04,02,04,42,7.20
2010,04,02,04,43,7.30
2010,04,02,04,44,7.30
2010,04,02,04,45,7.30
2010,04,02,04,46,7.30
2010,04,02,04,47,7.20
2010,04,02,04,48,7.10
2010,04,02,04,49,7.00
2010,04,02,04,50,7.00
2010,04,02,04,51,6.90
2010,04,02,04,52,6.90
2010,04,02,04,53,6.80
2010,04,02,04,54,6.80
2010,04,02,04,55,6.80
2010,04,02,04,56,6.70
2010,04,02,04,57,6.70
2010,04,02,04,58,6.70
2010,04,02,04,59,6.60
2010,04,02,05,00,6.60
2010,04,02,05,01,6.60
2010,04,02,05,02,6.60
2010,04,02,05,03,6.60
2010,04,02,05,04,6.40
2010,04,02,05,05,6.40
2010,04,02,05,06,6.40
2010,04,02,05,07,6.40
2010,04,02,05,08,6.40
2010,04,02,05,09,6.30
2010,04,02,05,10,6.30
2010,04,02,05,11,6.30
2010,04,02,05,12,6.30
2010,04,02,05,13,6.20
2010,04,02,05,14,6.20
2010,04,02,05,15,6.20
2010,04,02,05,16,6.20
2010,04,02,05,17,6.20
2010,04,02,05,18,6.20
2010,04,02,05,19,6.20
2010,04,02,05,20,6.20
2010,04,02,05,21,6.20
2010,04,02,05,22,6.20
2010,04,02,05,23,6.20
2010,04,02,05,24,6.20
2010,04,02,05,25,6.20
2010,04,02,05,26,6.20
2010,04,02,05,27,6.20
2010,04,02,05,28,6.20
2010,04,02,05,29,6.20
2010,04,02,05,30,6.20
2010,04,02,05,31,6.20
2010,04,02,05,32,6.20
2010,04,02,05,33,6.20
2010,04,02,05,34,6.10
2010,04,02,05,35,6.10
2010,04,02,05,36,6.10
2010,04,02,05,37,6.00
2010,04,02,05,38,6.00
2010,04,02,05,39,6.00
2010,04,02,05,40,6.00
2010,04,02,05,41,6.00
2010,04,02,05,42,6.00
2010,04,02,05,43,5.90
2010,04,02,05,44,5.90
2010,04,02,05,45,5.90
2010,04,02,05,46,5.90
2010,04,02,05,47,5.90
2010,04,02,05,48,5.90
2010,04,02,05,49,5.90
2010,04,02,05,50,5.90
2010,04,02,05,51,5.90
2010,04,02,05,52,5.90
2010,04,02,05,53,5.90
2010,04,02,05,54,5.90
2010,04,02,05,55,5.90
2010,04,02,05,56,5.90
2010,04,02,05,57,5.90
2010,04,02,05,58,6.00
2010,04,02,05,59,6.00
2010,04,02,06,00,6.00
2010,04,02,06,01,6.00
2010,04,02,06,02,6.00
2010,04,02,06,03,6.00
2010,04,02,06,04,6.00
2010,04,02,06,05,6.00
2010,04,02,06,06,6.00
2010,04,02,06,07,6.00
2010,04,02,06,08,6.00
2010,04,02,06,09,6.00
2010,04,02,06,10,6.00
2010,04,02,06,11,5.90
2010,04,02,06,12,5.90
2010,04,02,06,13,5.90
2010,04,02,06,14,5.90
2010,04,02,06,15,5.80
2010,04,02,06,16,5.80
2010,04,02,06,17,5.80
2010,04,02,06,18,5.80
2010,04,02,06,19,5.80
2010,04,02,06,20,5.80
2010,04,02,06,21,5.80
2010,04,02,06,22,5.80
2010,04,02,06,23,5.70
2010,04,02,06,24,5.70
2010,04,02,06,25,5.70
2010,04,02,06,26,5.70
2010,04,02,06,27,5.70
2010,04,02,06,28,5.70
2010,04,02,06,29,5.70
2010,04,02,06,30,5.70
2010,04,02,06,31,5.70
2010,04,02,06,32,5.70
2010,04,02,06,33,5.70
2010,04,02,06,34,5.70
2010,04,02,06,35,5.70
2010,04,02,06,36,5.70
2010,04,02,06,37,5.70
2010,04,02,06,38,5.70
2010,04,02,06,39,5.70
2010,04,02,06,40,5.70
2010,04,02,06,41,5.70
2010,04,02,06,42,5.70
2010,04,02,06,43,5.70
2010,04,02,06,44,5.60
2010,04,02,06,45,5.60
2010,04,02,06,46,5.60
2010,04,02,06,47,5.60
2010,04,02,06,48,5.60
2010,04,02,06,49,5.60
2010,04,02,06,50,5.70
2010,04,02,06,51,5.70
2010,04,02,06,52,5.70
2010,04,02,06,53,5.70
2010,04,02,06,54,5.70
2010,04,02,06,55,5.60
2010,04,02,06,56,5.60
2010,04,02,06,57,5.60
2010,04,02,06,58,5.60
2010,04,02,06,59,5.60
2010,04,02,07,00,5.50
2010,04,02,07,01,5.50
2010,04,02,07,02,5.50
2010,04,02,07,03,5.50
2010,04,02,07,04,5.50
2010,04,02,07,05,5.50
2010,04,02,07,06,5.50
2010,04,02,07,07,5.40
2010,04,02,07,08,5.40
2010,04,02,07,09,5.40
2010,04,02,07,10,5.40
2010,04,02,07,11,5.30
2010,04,02,07,12,5.30
2010,04,02,07,13,5.30
2010,04,02,07,14,5.30
2010,04,02,07,15,5.20
2010,04,02,07,16,5.10
2010,04,02,07,17,5.10
2010,04,02,07,18,5.10
2010,04,02,07,19,5.10
2010,04,02,07,20,5.10
2010,04,02,07,21,5.10
2010,04,02,07,22,5.00
2010,04,02,07,23,4.90
2010,04,02,07,24,4.90
2010,04,02,07,25,5.00
2010,04,02,07,26,5.10
2010,04,02,07,27,5.10
2010,04,02,07,28,5.10
2010,04,02,07,29,5.20
2010,04,02,07,30,5.20
2010,04,02,07,31,5.20
2010,04,02,07,32,5.20
2010,04,02,07,33,5.20
2010,04,02,07,34,5.20
2010,04,02,07,35,5.20
2010,04,02,07,36,5.20
2010,04,02,07,37,5.20
2010,04,02,07,38,5.30
2010,04,02,07,39,5.30
2010,04,02,07,40,5.30
2010,04,02,07,41,5.30
2010,04,02,07,42,5.30
2010,04,02,07,43,5.30
2010,04,02,07,44,5.30
2010,04,02,07,45,5.30
2010,04,02,07,46,5.30
2010,04,02,07,47,5.30
2010,04,02,07,48,5.30
2010,04,02,07,49,5.30
2010,04,02,07,50,5.30
2010,04,02,07,51,5.20
2010,04,02,07,52,5.20
2010,04,02,07,53,5.10
2010,04,02,07,54,5.10
2010,04,02,07,55,5.10
2010,04,02,07,56,5.10
2010,04,02,07,57,5.10
2010,04,02,07,58,5.10
2010,04,02,07,59,5.10
2010,04,02,08,00,5.10
2010,04,02,08,01,5.10
2010,04,02,08,02,5.10
2010,04,02,08,03,5.10
2010,04,02,08,04,5.10
2010,04,02,08,05,5.10
2010,04,02,08,06,5.10
2010,04,02,08,07,5.10
2010,04,02,08,08,5.10
2010,04,02,08,09,5.10
2010,04,02,08,10,5.10
2010,04,02,08,11,5.10
2010,04,02,08,12,5.10
2010,04,02,08,13,5.00
2010,04,02,08,14,4.90
2010,04,02,08,15,4.90
2010,04,02,08,16,4.90
2010,04,02,08,17,4.90
2010,04,02,08,18,4.90
2010,04,02,08,19,4.90
2010,04,02,08,20,4.90
2010,04,02,08,21,4.90
2010,04,02,08,22,4.90
2010,04,02,08,23,4.90
2010,04,02,08,24,4.80
2010,04,02,08,25,4.80
2010,04,02,08,26,4.80
2010,04,02,08,27,4.80
2010,04,02,08,28,4.80
2010,04,02,08,29,4.70
2010,04,02,08,30,4.70
2010,04,02,08,31,4.70
2010,04,02,08,32,4.60
2010,04,02,08,33,4.60
2010,04,02,08,34,4.60
2010,04,02,08,35,4.60
2010,04,02,08,36,4.70
2010,04,02,08,37,4.70
2010,04,02,08,38,4.70
2010,04,02,08,39,4.60
2010,04,02,08,40,4.60
2010,04,02,08,41,4.60
2010,04,02,08,42,4.60
2010,04,02,08,43,4.60
2010,04,02,08,44,4.60
2010,04,02,08,45,4.60
2010,04,02,08,46,4.60
2010,04,02,08,47,4.60
2010,04,02,08,48,4.60
2010,04,02,08,49,4.60
2010,04,02,08,50,4.60
2010,04,02,08,51,4.60
2010,04,02,08,52,4.60
2010,04,02,08,53,4.60
2010,04,02,08,54,4.60
2010,04,02,08,55,4.60
2010,04,02,08,56,4.60
2010,04,02,08,57,4.60
2010,04,02,08,58,4.60
2010,04,02,08,59,4.50
2010,04,02,09,00,4.50
2010,04,02,09,01,4.50
2010,04,02,09,02,4.40
2010,04,02,09,03,4.40
2010,04,02,09,04,4.40
2010,04,02,09,05,4.40
2010,04,02,09,06,4.40
2010,04,02,09,07,4.30
2010,04,02,09,08,4.30
2010,04,02,09,09,4.30
2010,04,02,09,10,4.30
2010,04,02,09,11,4.30
2010,04,02,09,12,4.30
2010,04,02,09,13,4.30
2010,04,02,09,14,4.20
2010,04,02,09,15,4.20
2010,04,02,09,16,4.20
2010,04,02,09,17,4.20
2010,04,02,09,18,4.20
2010,04,02,09,19,4.20
2010,04,02,09,20,4.20
2010,04,02,09,21,4.20
2010,04,02,09,22,4.20
2010,04,02,09,23,4.20
2010,04,02,09,24,4.20
2010,04,02,09,25,4.20
2010,04,02,09,26,4.20
2010,04,02,09,27,4.20
2010,04,02,09,28,4.20
2010,04,02,09,29,4.20
2010,04,02,09,30,4.20
2010,04,02,09,31,4.20
2010,04,02,09,32,4.20
2010,04,02,09,33,4.20
2010,04,02,09,34,4.20
2010,04,02,09,35,4.20
2010,04,02,09,36,4.20
2010,04,02,09,37,4.20
2010,04,02,09,38,4.20
2010,04,02,09,39,4.20
2010,04,02,09,40,4.10
2010,04,02,09,41,4.10
2010,04,02,09,42,4.20
2010,04,02,09,43,4.20
2010,04,02,09,44,4.20
2010,04,02,09,45,4.20
2010,04,02,09,46,4.20
2010,04,02,09,47,4.20
2010,04,02,09,48,4.20
2010,04,02,09,49,4.20
2010,04,02,09,50,4.20
2010,04,02,09,51,4.20
2010,04,02,09,52,4.20
2010,04,02,09,53,4.20
2010,04,02,09,54,4.20
2010,04,02,09,55,4.20
2010,04,02,09,56,4.20
2010,04,02,09,57,4.30
2010,04,02,09,58,4.30
2010,04,02,09,59,4.40
2010,04,02,10,00,4.40
2010,04,02,10,01,4.50
2010,04,02,10,02,4.50
2010,04,02,10,03,4.60
2010,04,02,10,04,4.60
2010,04,02,10,05,4.60
2010,04,02,10,06,4.60
2010,04,02,10,07,4.70
2010,04,02,10,08,4.70
2010,04,02,10,09,4.70
2010,04,02,10,10,4.70
2010,04,02,10,11,4.70
2010,04,02,10,12,4.70
2010,04,02,10,13,4.80
2010,04,02,10,14,4.80
2010,04,02,10,15,4.80
2010,04,02,10,16,4.80
2010,04,02,10,17,4.80
2010,04,02,10,18,4.90
2010,04,02,10,19,4.90
2010,04,02,10,20,4.90
2010,04,02,10,21,4.90
2010,04,02,10,22,4.90
2010,04,02,10,23,4.90
2010,04,02,10,24,4.90
2010,04,02,10,25,4.90
2010,04,02,10,26,4.90
2010,04,02,10,27,4.90
2010,04,02,10,28,4.90
2010,04,02,10,29,4.90
2010,04,02,10,30,5.00
2010,04,02,10,31,5.10
2010,04,02,10,32,5.10
2010,04,02,10,33,5.10
2010,04,02,10,34,5.10
2010,04,02,10,35,5.10
2010,04,02,10,36,5.10
2010,04,02,10,37,5.10
2010,04,02,10,38,5.10
2010,04,02,10,39,5.10
2010,04,02,10,40,5.10
2010,04,02,10,41,5.10
2010,04,02,10,42,5.10
2010,04,02,10,43,5.10
2010,04,02,10,44,5.10
2010,04,02,10,45,5.10
2010,04,02,10,46,5.10
2010,04,02,10,47,5.10
2010,04,02,10,48,5.10
2010,04,02,10,49,5.10
2010,04,02,10,50,5.10
2010,04,02,10,51,5.10
2010,04,02,10,52,5.10
2010,04,02,10,53,5.10
2010,04,02,10,54,5.10
2010,04,02,10,55,5.10
2010,04,02,10,56,5.10
2010,04,02,10,57,5.10
2010,04,02,10,58,5.20
2010,04,02,10,59,5.20
2010,04,02,11,00,5.20
2010,04,02,11,01,5.20
2010,04,02,11,02,5.20
2010,04,02,11,03,5.20
2010,04,02,11,04,5.20
2010,04,02,11,05,5.20
2010,04,02,11,06,5.20
2010,04,02,11,07,5.20
2010,04,02,11,08,5.30
2010,04,02,11,09,5.30
2010,04,02,11,10,5.30
2010,04,02,11,11,5.30
2010,04,02,11,12,5.30
2010,04,02,11,13,5.30
2010,04,02,11,14,5.30
2010,04,02,11,15,5.30
2010,04,02,11,16,5.30
2010,04,02,11,17,5.30
2010,04,02,11,18,5.30
2010,04,02,11,19,5.40
2010,04,02,11,20,5.40
2010,04,02,11,21,5.40
2010,04,02,11,22,5.40
2010,04,02,11,23,5.40
2010,04,02,11,24,5.40
2010,04,02,11,25,5.40
2010,04,02,11,26,5.30
2010,04,02,11,27,5.30
2010,04,02,11,28,5.40
2010,04,02,11,29,5.40
2010,04,02,11,30,5.50
2010,04,02,11,31,5.50
2010,04,02,11,32,5.50
2010,04,02,11,33,5.50
2010,04,02,11,34,5.60
2010,04,02,11,35,5.60
2010,04,02,11,36,5.60
2010,04,02,11,37,5.60
2010,04,02,11,38,5.60
2010,04,02,11,39,5.60
2010,04,02,11,40,5.60
2010,04,02,11,41,5.70
2010,04,02,11,42,5.70
2010,04,02,11,43,5.70
2010,04,02,11,44,5.70
2010,04,02,11,45,5.70
2010,04,02,11,46,5.70
2010,04,02,11,47,5.70
2010,04,02,11,48,5.70
2010,04,02,11,49,5.80
2010,04,02,11,50,5.80
2010,04,02,11,51,5.80
2010,04,02,11,52,5.80
2010,04,02,11,53,5.80
2010,04,02,11,54,5.80
2010,04,02,11,55,5.80
2010,04,02,11,56,5.80
2010,04,02,11,57,5.80
2010,04,02,11,58,5.80
2010,04,02,11,59,5.80
2010,04,02,12,00,5.80
2010,04,02,12,01,5.80
2010,04,02,12,02,5.80
2010,04,02,12,03,5.80
2010,04,02,12,04,5.80
2010,04,02,12,05,5.80
2010,04,02,12,06,5.80
2010,04,02,12,07,5.80
2010,04,02,12,08,5.80
2010,04,02,12,09,5.90
2010,04,02,12,10,5.90
2010,04,02,12,11,5.90
2010,04,02,12,12,5.90
2010,04,02,12,13,5.90
2010,04,02,12,14,5.90
2010,04,02,12,15,5.90
2010,04,02,12,16,5.90
2010,04,02,12,17,5.90
2010,04,02,12,18,5.90
2010,04,02,12,19,5.90
2010,04,02,12,20,5.90
2010,04,02,12,21,6.00
2010,04,02,12,22,6.00
2010,04,02,12,23,6.00
2010,04,02,12,24,6.10
2010,04,02,12,25,6.10
2010,04,02,12,26,6.10
2010,04,02,12,27,6.20
2010,04,02,12,28,6.20
2010,04,02,12,29,6.20
2010,04,02,12,30,6.30
2010,04,02,12,31,6.40
2010,04,02,12,32,6.40
2010,04,02,12,33,6.50
2010,04,02,12,34,6.60
2010,04,02,12,35,6.60
2010,04,02,12,36,6.70
2010,04,02,12,37,6.80
2010,04,02,12,38,6.80
2010,04,02,12,39,6.90
2010,04,02,12,40,7.00
2010,04,02,12,41,7.00
2010,04,02,12,42,7.20
2010,04,02,12,43,7.20
2010,04,02,12,44,7.10
2010,04,02,12,45,7.10
2010,04,02,12,46,7.10
2010,04,02,12,47,7.10
2010,04,02,12,48,7.20
2010,04,02,12,49,7.30
2010,04,02,12,50,7.40
2010,04,02,12,51,7.60
2010,04,02,12,52,7.80
2010,04,02,12,53,7.80
2010,04,02,12,54,7.60
2010,04,02,12,55,7.60
2010,04,02,12,56,7.60
2010,04,02,12,57,7.70
2010,04,02,12,58,7.70
2010,04,02,12,59,7.70
2010,04,02,13,00,7.80
2010,04,02,13,01,7.90
2010,04,02,13,02,7.90
2010,04,02,13,03,7.90
2010,04,02,13,04,7.90
2010,04,02,13,05,7.80
2010,04,02,13,06,7.80
2010,04,02,13,07,7.80
2010,04,02,13,08,7.80
2010,04,02,13,09,7.90
2010,04,02,13,10,8.00
2010,04,02,13,11,7.90
2010,04,02,13,12,7.90
2010,04,02,13,13,8.00
2010,04,02,13,14,8.00
2010,04,02,13,15,8.10
2010,04,02,13,16,8.00
2010,04,02,13,17,7.90
2010,04,02,13,18,7.90
2010,04,02,13,19,7.80
2010,04,02,13,20,7.80
2010,04,02,13,21,7.70
2010,04,02,13,22,7.70
2010,04,02,13,23,7.80
2010,04,02,13,24,7.60
2010,04,02,13,25,7.60
2010,04,02,13,26,7.60
2010,04,02,13,27,7.60
2010,04,02,13,28,7.70
2010,04,02,13,29,7.70
2010,04,02,13,30,7.70
2010,04,02,13,31,7.80
2010,04,02,13,32,8.10
2010,04,02,13,33,8.20
2010,04,02,13,34,8.10
2010,04,02,13,35,8.00
2010,04,02,13,36,7.90
2010,04,02,13,37,7.90
2010,04,02,13,38,8.00
2010,04,02,13,39,8.20
2010,04,02,13,40,8.20
2010,04,02,13,41,8.20
2010,04,02,13,42,8.10
2010,04,02,13,43,8.00
2010,04,02,13,44,7.90
2010,04,02,13,45,7.90
2010,04,02,13,46,7.90
2010,04,02,13,47,7.80
2010,04,02,13,48,7.80
2010,04,02,13,49,7.70
2010,04,02,13,50,7.70
2010,04,02,13,51,7.70
2010,04,02,13,52,7.80
2010,04,02,13,53,7.80
2010,04,02,13,54,7.80
2010,04,02,13,55,7.90
2010,04,02,13,56,7.90
2010,04,02,13,57,8.00
2010,04,02,13,58,8.00
2010,04,02,13,59,8.00
2010,04,02,14,00,8.00
2010,04,02,14,01,8.10
2010,04,02,14,02,8.10
2010,04,02,14,03,8.10
2010,04,02,14,04,8.00
2010,04,02,14,05,7.90
2010,04,02,14,06,7.90
2010,04,02,14,07,7.90
2010,04,02,14,08,7.90
2010,04,02,14,09,8.00
2010,04,02,14,10,8.10
2010,04,02,14,11,8.10
2010,04,02,14,12,8.10
2010,04,02,14,13,8.20
2010,04,02,14,14,8.20
2010,04,02,14,15,8.30
2010,04,02,14,16,8.30
2010,04,02,14,17,8.30
2010,04,02,14,18,8.30
2010,04,02,14,19,8.20
2010,04,02,14,20,8.20
2010,04,02,14,21,8.20
2010,04,02,14,22,8.20
2010,04,02,14,23,8.20
2010,04,02,14,24,8.30
2010,04,02,14,25,8.40
2010,04,02,14,26,8.40
2010,04,02,14,27,8.50
2010,04,02,14,28,8.30
2010,04,02,14,29,8.10
2010,04,02,14,30,8.10
2010,04,02,14,31,8.00
2010,04,02,14,32,8.10
2010,04,02,14,33,8.20
2010,04,02,14,34,8.30
2010,04,02,14,35,8.40
2010,04,02,14,36,8.40
2010,04,02,14,37,8.40
2010,04,02,14,38,8.40
2010,04,02,14,39,8.40
2010,04,02,14,40,8.30
2010,04,02,14,41,8.30
2010,04,02,14,42,8.40
2010,04,02,14,43,8.40
2010,04,02,14,44,8.40
2010,04,02,14,45,8.30
2010,04,02,14,46,8.30
2010,04,02,14,47,8.30
2010,04,02,14,48,8.20
2010,04,02,14,49,8.20
2010,04,02,14,50,8.20
2010,04,02,14,51,8.20
2010,04,02,14,52,8.20
2010,04,02,14,53,8.10
2010,04,02,14,54,8.10
2010,04,02,14,55,8.10
2010,04,02,14,56,8.10
2010,04,02,14,57,8.10
2010,04,02,14,58,8.10
2010,04,02,14,59,8.00
2010,04,02,15,00,8.00
2010,04,02,15,01,8.00
2010,04,02,15,02,8.00
2010,04,02,15,03,8.00
2010,04,02,15,04,8.00
2010,04,02,15,05,7.90
2010,04,02,15,06,7.90
2010,04,02,15,07,7.90
2010,04,02,15,08,7.90
2010,04,02,15,09,7.80
2010,04,02,15,10,7.80
2010,04,02,15,11,7.80
2010,04,02,15,12,7.80
2010,04,02,15,13,7.80
2010,04,02,15,14,7.80
2010,04,02,15,15,7.80
2010,04,02,15,16,7.80
2010,04,02,15,17,7.80
2010,04,02,15,18,7.80
2010,04,02,15,19,7.80
2010,04,02,15,20,7.80
2010,04,02,15,21,7.80
2010,04,02,15,22,7.80
2010,04,02,15,23,7.80
2010,04,02,15,24,7.80
2010,04,02,15,25,7.80
2010,04,02,15,26,7.80
2010,04,02,15,27,7.80
2010,04,02,15,28,7.80
2010,04,02,15,29,7.70
2010,04,02,15,30,7.70
2010,04,02,15,31,7.70
2010,04,02,15,32,7.70
2010,04,02,15,33,7.60
2010,04,02,15,34,7.60
2010,04,02,15,35,7.60
2010,04,02,15,36,7.60
2010,04,02,15,37,7.60
2010,04,02,15,38,7.60
2010,04,02,15,39,7.60
2010,04,02,15,40,7.60
2010,04,02,15,41,7.60
2010,04,02,15,42,7.50
2010,04,02,15,43,7.50
2010,04,02,15,44,7.50
2010,04,02,15,45,7.50
2010,04,02,15,46,7.50
2010,04,02,15,47,7.50
2010,04,02,15,48,7.50
2010,04,02,15,49,7.50
2010,04,02,15,50,7.50
2010,04,02,15,51,7.50
2010,04,02,15,52,7.50
2010,04,02,15,53,7.50
2010,04,02,15,54,7.50
2010,04,02,15,55,7.60
2010,04,02,15,56,7.50
2010,04,02,15,57,7.50
2010,04,02,15,58,7.50
2010,04,02,15,59,7.50
2010,04,02,16,00,7.40
2010,04,02,16,01,7.40
2010,04,02,16,02,7.30
2010,04,02,16,03,7.30
2010,04,02,16,04,7.30
2010,04,02,16,05,7.30
2010,04,02,16,06,7.30
2010,04,02,16,07,7.30
2010,04,02,16,08,7.30
2010,04,02,16,09,7.20
2010,04,02,16,10,7.20
2010,04,02,16,11,7.20
2010,04,02,16,12,7.20
2010,04,02,16,13,7.10
2010,04,02,16,14,7.10
2010,04,02,16,15,7.10
2010,04,02,16,16,7.10
2010,04,02,16,17,7.10
2010,04,02,16,18,7.20
2010,04,02,16,19,7.20
2010,04,02,16,20,7.20
2010,04,02,16,21,7.20
2010,04,02,16,22,7.30
2010,04,02,16,23,7.30
2010,04,02,16,24,7.30
2010,04,02,16,25,7.30
2010,04,02,16,26,7.30
2010,04,02,16,27,7.30
2010,04,02,16,28,7.30
2010,04,02,16,29,7.30
2010,04,02,16,30,7.30
2010,04,02,16,31,7.30
2010,04,02,16,32,7.30
2010,04,02,16,33,7.30
2010,04,02,16,34,7.40
2010,04,02,16,35,7.40
2010,04,02,16,36,7.40
2010,04,02,16,37,7.40
2010,04,02,16,38,7.50
2010,04,02,16,39,7.50
2010,04,02,16,40,7.50
2010,04,02,16,41,7.50
2010,04,02,16,42,7.50
2010,04,02,16,43,7.60
2010,04,02,16,44,7.60
2010,04,02,16,45,7.60
2010,04,02,16,46,7.60
2010,04,02,16,47,7.60
2010,04,02,16,48,7.60
2010,04,02,16,49,7.50
2010,04,02,16,50,7.50
2010,04,02,16,51,7.50
2010,04,02,16,52,7.50
2010,04,02,16,53,7.50
2010,04,02,16,54,7.50
2010,04,02,16,55,7.50
2010,04,02,16,56,7.50
2010,04,02,16,57,7.50
2010,04,02,16,58,7.40
2010,04,02,16,59,7.50
2010,04,02,17,00,7.50
2010,04,02,17,01,7.50
2010,04,02,17,02,7.50
2010,04,02,17,03,7.50
2010,04,02,17,04,7.50
2010,04,02,17,05,7.50
2010,04,02,17,06,7.50
2010,04,02,17,07,7.50
2010,04,02,17,08,7.40
2010,04,02,17,09,7.40
2010,04,02,17,10,7.40
2010,04,02,17,11,7.40
2010,04,02,17,12,7.40
2010,04,02,17,13,7.40
2010,04,02,17,14,7.30
2010,04,02,17,15,7.30
2010,04,02,17,16,7.30
2010,04,02,17,17,7.30
2010,04,02,17,18,7.30
2010,04,02,17,19,7.20
2010,04,02,17,20,7.20
2010,04,02,17,21,7.20
2010,04,02,17,22,7.10
2010,04,02,17,23,7.10
2010,04,02,17,24,7.10
2010,04,02,17,25,7.00
2010,04,02,17,26,7.00
2010,04,02,17,27,7.00
2010,04,02,17,28,6.90
2010,04,02,17,29,6.90
2010,04,02,17,30,6.80
2010,04,02,17,31,6.80
2010,04,02,17,32,6.80
2010,04,02,17,33,6.70
2010,04,02,17,34,6.60
2010,04,02,17,35,6.60
2010,04,02,17,36,6.60
2010,04,02,17,37,6.60
2010,04,02,17,38,6.50
2010,04,02,17,39,6.40
2010,04,02,17,40,6.40
2010,04,02,17,41,6.40
2010,04,02,17,42,6.40
2010,04,02,17,43,6.40
2010,04,02,17,44,6.40
2010,04,02,17,45,6.40
2010,04,02,17,46,6.30
2010,04,02,17,47,6.30
2010,04,02,17,48,6.30
2010,04,02,17,49,6.20
2010,04,02,17,50,6.20
2010,04,02,17,51,6.20
2010,04,02,17,52,6.20
2010,04,02,17,53,6.20
2010,04,02,17,54,6.20
2010,04,02,17,55,6.20
2010,04,02,17,56,6.20
2010,04,02,17,57,6.20
2010,04,02,17,58,6.20
2010,04,02,17,59,6.20
2010,04,02,18,00,6.20
2010,04,02,18,01,6.20
2010,04,02,18,02,6.30
2010,04,02,18,03,6.30
2010,04,02,18,04,6.30
2010,04,02,18,05,6.20
2010,04,02,18,06,6.20